TimeCDT,TemperatureF,Dew PointF,Humidity,Sea Level PressureIn,VisibilityMPH,Wind Direction,Wind SpeedMPH,Gust SpeedMPH,PrecipitationIn,Events,Conditions,WindDirDegrees,DateUTC
12:15 AM,51.8,37.4,58,29.92,10.0,South,4.6,-,N/A,,Clear,170,2012-10-09 05:15:00
12:35 AM,51.8,37.4,58,29.91,10.0,South,4.6,-,N/A,,Clear,180,2012-10-09 05:35:00
12:55 AM,51.8,37.4,58,29.91,10.0,South,4.6,-,N/A,,Clear,180,2012-10-09 05:55:00
1:15 AM,53.6,39.2,58,29.90,10.0,South,11.5,-,N/A,,Clear,190,2012-10-09 06:15:00
1:35 AM,51.8,39.2,62,29.89,10.0,South,8.1,-,N/A,,Clear,190,2012-10-09 06:35:00
1:55 AM,51.8,41.0,67,29.87,10.0,SSW,9.2,-,N/A,,Clear,200,2012-10-09 06:55:00
2:35 AM,51.8,41.0,67,29.87,10.0,SSW,8.1,-,N/A,,Clear,200,2012-10-09 07:35:00
2:55 AM,51.8,41.0,67,29.85,10.0,SSW,11.5,-,N/A,,Clear,200,2012-10-09 07:55:00
3:35 AM,53.6,42.8,67,29.84,10.0,SW,15.0,21.9,N/A,,Clear,220,2012-10-09 08:35:00
3:55 AM,53.6,42.8,67,29.84,10.0,SW,9.2,-,N/A,,Clear,220,2012-10-09 08:55:00
4:15 AM,51.8,42.8,71,29.84,10.0,SW,8.1,-,N/A,,Clear,220,2012-10-09 09:15:00
4:35 AM,51.8,42.8,71,29.82,10.0,SW,9.2,-,N/A,,Clear,220,2012-10-09 09:35:00
4:55 AM,51.8,42.8,71,29.82,10.0,SW,8.1,-,N/A,,Clear,230,2012-10-09 09:55:00
5:15 AM,50.0,42.8,76,29.83,10.0,Calm,Calm,-,N/A,,Clear,0,2012-10-09 10:15:00
5:35 AM,50.0,42.8,76,29.84,10.0,SW,4.6,-,N/A,,Clear,220,2012-10-09 10:35:00
5:55 AM,46.4,41.0,81,29.84,10.0,WSW,4.6,-,N/A,,Clear,240,2012-10-09 10:55:00
6:15 AM,46.4,41.0,81,29.84,10.0,SW,4.6,-,N/A,,Clear,220,2012-10-09 11:15:00
6:35 AM,46.4,42.8,87,29.84,10.0,SW,6.9,-,N/A,,Clear,230,2012-10-09 11:35:00
6:55 AM,46.4,42.8,87,29.85,10.0,WSW,3.5,-,N/A,,Clear,240,2012-10-09 11:55:00
7:15 AM,44.6,41.0,87,29.85,10.0,SW,6.9,-,N/A,,Clear,230,2012-10-09 12:15:00
7:35 AM,44.6,41.0,87,29.85,10.0,WSW,8.1,-,N/A,,Clear,240,2012-10-09 12:35:00
7:55 AM,46.4,42.8,87,29.85,10.0,WSW,10.4,-,N/A,,Clear,240,2012-10-09 12:55:00
8:15 AM,50.0,42.8,76,29.86,10.0,WSW,13.8,-,N/A,,Clear,240,2012-10-09 13:15:00
8:35 AM,51.8,42.8,71,29.86,10.0,WSW,11.5,-,N/A,,Clear,240,2012-10-09 13:35:00
8:55 AM,53.6,42.8,67,29.86,10.0,WSW,12.7,-,N/A,,Clear,240,2012-10-09 13:55:00
9:15 AM,55.4,41.0,58,29.87,10.0,WSW,12.7,-,N/A,,Clear,240,2012-10-09 14:15:00
9:35 AM,57.2,37.4,48,29.87,10.0,SW,12.7,-,N/A,,Clear,230,2012-10-09 14:35:00
9:55 AM,60.8,37.4,42,29.88,10.0,SW,10.4,-,N/A,,Clear,230,2012-10-09 14:55:00
10:15 AM,62.6,35.6,37,29.88,10.0,WSW,9.2,-,N/A,,Clear,240,2012-10-09 15:15:00
10:35 AM,68.0,33.8,28,29.89,10.0,WSW,6.9,-,N/A,,Clear,250,2012-10-09 15:35:00
10:55 AM,69.8,33.8,27,29.89,10.0,West,6.9,-,N/A,,Clear,260,2012-10-09 15:55:00
11:15 AM,73.4,32.0,22,29.90,10.0,NW,9.2,-,N/A,,Clear,320,2012-10-09 16:15:00
11:35 AM,77.0,26.6,16,29.91,10.0,NNW,15.0,23.0,N/A,,Clear,340,2012-10-09 16:35:00
12:15 PM,77.0,24.8,14,29.90,10.0,North,11.5,16.1,N/A,,Clear,10,2012-10-09 17:15:00
12:35 PM,75.2,24.8,15,29.91,10.0,North,10.4,-,N/A,,Clear,10,2012-10-09 17:35:00
1:15 PM,77.0,26.6,16,29.91,10.0,North,10.4,18.4,N/A,,Clear,350,2012-10-09 18:15:00
1:35 PM,77.0,24.8,14,29.91,10.0,NNW,17.3,21.9,N/A,,Clear,340,2012-10-09 18:35:00
1:55 PM,77.0,24.8,14,29.91,10.0,North,18.4,25.3,N/A,,Clear,10,2012-10-09 18:55:00
2:15 PM,77.0,26.6,16,29.92,10.0,North,18.4,24.2,N/A,,Clear,360,2012-10-09 19:15:00
2:35 PM,73.4,28.4,19,29.92,10.0,North,16.1,20.7,N/A,,Clear,360,2012-10-09 19:35:00
2:55 PM,75.2,30.2,19,29.92,10.0,NNE,15.0,21.9,N/A,,Clear,30,2012-10-09 19:55:00
3:15 PM,77.0,32.0,19,29.92,10.0,North,13.8,23.0,N/A,,Clear,360,2012-10-09 20:15:00
3:35 PM,75.2,32.0,21,29.94,10.0,NNE,18.4,25.3,N/A,,Clear,20,2012-10-09 20:35:00
4:15 PM,73.4,33.8,23,29.94,10.0,North,17.3,26.5,N/A,,Clear,10,2012-10-09 21:15:00
4:35 PM,73.4,35.6,25,29.95,10.0,NNE,19.6,24.2,N/A,,Clear,30,2012-10-09 21:35:00
4:55 PM,71.6,35.6,27,29.96,10.0,NNE,16.1,24.2,N/A,,Clear,30,2012-10-09 21:55:00
5:15 PM,71.6,35.6,27,29.97,10.0,NNE,17.3,24.2,N/A,,Clear,30,2012-10-09 22:15:00
5:35 PM,71.6,35.6,27,29.97,10.0,NNE,18.4,24.2,N/A,,Clear,30,2012-10-09 22:35:00
5:55 PM,69.8,37.4,31,29.98,10.0,NNE,18.4,-,N/A,,Clear,30,2012-10-09 22:55:00
6:15 PM,68.0,37.4,33,29.99,10.0,NNE,13.8,19.6,N/A,,Clear,30,2012-10-09 23:15:00
6:35 PM,68.0,37.4,33,30.00,10.0,NE,13.8,-,N/A,,Clear,50,2012-10-09 23:35:00
6:55 PM,64.4,37.4,37,30.01,10.0,NE,10.4,-,N/A,,Clear,40,2012-10-09 23:55:00
7:15 PM,62.6,35.6,37,30.01,10.0,NE,13.8,17.3,N/A,,Clear,40,2012-10-10 00:15:00
7:35 PM,60.8,37.4,42,30.02,10.0,NE,10.4,17.3,N/A,,Clear,40,2012-10-10 00:35:00
7:55 PM,60.8,37.4,42,30.03,10.0,NE,12.7,17.3,N/A,,Clear,40,2012-10-10 00:55:00
8:15 PM,59.0,37.4,45,30.04,10.0,NE,10.4,-,N/A,,Clear,40,2012-10-10 01:15:00
8:35 PM,57.2,39.2,51,30.05,10.0,NE,11.5,16.1,N/A,,Clear,40,2012-10-10 01:35:00
8:55 PM,57.2,39.2,51,30.06,10.0,NE,12.7,18.4,N/A,,Clear,50,2012-10-10 01:55:00
9:15 PM,55.4,39.2,54,30.07,10.0,NE,10.4,-,N/A,,Clear,50,2012-10-10 02:15:00
9:35 PM,53.6,39.2,58,30.09,10.0,NE,11.5,-,N/A,,Clear,50,2012-10-10 02:35:00
10:15 PM,53.6,39.2,58,30.12,10.0,NE,12.7,-,N/A,,Clear,40,2012-10-10 03:15:00
10:35 PM,53.6,39.2,58,30.13,10.0,NE,12.7,-,N/A,,Clear,40,2012-10-10 03:35:00
10:55 PM,51.8,39.2,62,30.15,10.0,NE,12.7,-,N/A,,Clear,40,2012-10-10 03:55:00
11:15 PM,51.8,39.2,62,30.16,10.0,NE,9.2,19.6,N/A,,Clear,40,2012-10-10 04:15:00
11:35 PM,50.0,37.4,62,30.17,10.0,NE,9.2,-,N/A,,Clear,40,2012-10-10 04:35:00
11:55 PM,50.0,37.4,62,30.18,10.0,NE,5.8,-,N/A,,Clear,50,2012-10-10 04:55:00